Skip Page Navigation
NASA JPL Caltech
NASA Logo - Jet Propulsion Laboratory + View the NASA Portal
+ Near-Earth Object (NEO) Program
Search JPL
JPL Home Earth Solar System Stars & Galaxies Technology
JPL Solar System Dynamics
BODIES ORBITS EPHEMERIDES TOOLS PHYSICAL DATA DISCOVERY FAQ SITE MAP
JPL Small-Body Database Browser
Search: [ help ]  
(2012 VG77)
Classification: Apollo [NEO]          SPK-ID: 3617957
Ephemeris | Orbit Diagram | Orbital Elements | Physical Parameters | Close-Approach Data ]

[ hide orbit diagram ]
Orbit Diagram
Note: Make sure you have Java enabled on your browser to see the applet. This applet is provided as a 3D orbit visualization tool. The applet was implemented using 2-body methods, and hence should not be used for determining accurate long-term trajectories (over several years or decades) or planetary encounter circumstances. For accurate long-term ephemerides, please instead use our Horizons system.
Orbit Viewer

Additional Notes: the orbits shown in the applet are color coded. The planets are white lines, and the asteroid/comet is a blue line. The bright white line indicates the portion of the orbit that is above the ecliptic plane, and the darker portion is below the ecliptic plane. Likewise for the asteroid/comet orbit, the light blue indicates the portion above the ecliptic plane, and the dark blue the portion below the ecliptic plane.

Orbit Viewer applet originally written and kindly provided by Osamu Ajiki (AstroArts), and further modified by Ron Baalke (JPL).


Orbital Elements at Epoch 2456246.5 (2012-Nov-15.0) TDB
Reference: JPL 3 (heliocentric ecliptic J2000)
 Element Value Uncertainty (1-sigma)   Units 
e .5088732846909544 0.0026449  
a 1.671179644509352 0.0089925 AU
q .8207609694992167 7.7513e-06 AU
i 29.52868387993708 0.10579 deg
node 52.0404740174603 0.0017599 deg
peri 71.66182660749331 0.10298 deg
M 335.9029295926822 0.2464 deg
tp 2456299.319572080467
(2013-Jan-06.81957208)
0.11376 JED
period 789.1019791017268
2.16
6.3691
0.01744
d
yr
n .4562147980034286 0.0036823 deg/d
Q 2.521598319519488 0.013569 AU
  Orbit Determination Parameters
   # obs. used (total)      22  
   data-arc span      5 days  
   first obs. used      2012-11-14  
   last obs. used      2012-11-19  
   planetary ephem.      DE405  
   SB-pert. ephem.      SB405-CPV-2  
   condition code      8  
   fit RMS      .60114  
   data source      ORB  
   producer      Otto Matic  
   solution date      2012-Nov-20 00:54:30  

Additional Information
 Earth MOID = .0601303 AU 
 T_jup = 3.963 
[ show covariance matrix ]

Ephemeris | Orbit Diagram | Orbital Elements | Physical Parameters | Close-Approach Data ]

Physical Parameter Table
Parameter Symbol Value Units Sigma Reference Notes
absolute magnitude H 25.373 mag .35537 3 autocmod 2.5b

[ show close-approach data ]
Ephemeris | Orbit Diagram | Orbital Elements | Physical Parameters | Close-Approach Data ]
ABOUT SSD CREDITS/AWARDS PRIVACY/COPYRIGHT GLOSSARY LINKS
FirstGov 2013-May-21 18:48 UT
(server date/time)  
NASA Home Page
Site Manager:   Donald K. Yeomans
Webmaster  Alan B. Chamberlin